Tracking 26321 objects as of 27-Nov-2022
HD Live streaming from Space Station
objects crossing your sky now

STARLINK-3930

Track STARLINK-3930 now!
10-day predictions
STARLINK-3930 is classified as:


NORAD ID: 52568
Int'l Code: 2022-051AM
Perigee: 545.2 km
Apogee: 548.5 km
Inclination: 53.2 °
Period: 95.4 minutes
Semi major axis: 6917 km
RCS: Unknown
Launch date: May 13, 2022
Source: United States (US)
Launch site: AIR FORCE WESTERN TEST RANGE (AFWTR)
aabbcc
Your satellite tracking list
Your tracking list is empty




NASA's NSSDC Master Catalog

Two Line Element Set (TLE):
1 52568U 22051AM  22330.74728968  .00001875  00000-0  13585-3 0  9993
2 52568  53.2180 101.3813 0002400  50.6430 309.4775 15.08842657 30585
Source of the keplerian elements: AFSPC